Theta_e
346 354 357 361 362 364 362 362 364 366 366 365 362 362 363 362 359 360 360 360 359 359 359 359 356 357 356 355 355 359 361 360 359 362 362 362 363 363 363 362 360 357 360
352 356 360 363 363 362 364 363 364 364 364 362 362 363 363 363 361 361 360 359 360 359 359 358 356 356 356 357 356 359 359 360 361 359 359 358 359 358 360 359 357 357 358
353 357 359 363 363 363 364 364 363 362 362 363 362 361 361 360 360 360 360 361 360 359 357 357 356 356 357 358 356 357 358 359 361 360 360 356 357 358 357 359 361 360 358
355 356 356 363 363 362 362 363 362 362 363 363 362 361 360 359 358 359 360 361 360 359 358 358 357 358 357 357 357 358 357 354 359 359 357 357 353 357 361 359 359 359 360
355 357 358 362 362 363 363 364 362 362 362 363 361 359 358 358 357 358 360 360 358 359 360 359 358 359 358 358 358 357 357 358 359 353 357 360 358 356 359 359 359 358 357
354 356 362 363 362 363 363 363 363 363 362 363 362 362 360 360 361 360 360 359 359 359 360 361 360 359 359 360 357 357 357 351 350 354 356 357 358 357 359 360 358 359 359
353 356 359 364 363 362 364 364 362 362 362 362 363 361 361 361 360 360 360 360 360 359 360 360 358 358 358 359 356 356 355 352 351 353 356 357 356 359 359 359 359 358 358
353 355 356 363 363 363 363 363 362 361 361 360 362 362 361 361 361 359 359 359 360 361 360 360 360 358 358 358 356 354 353 356 349 348 352 359 355 357 358 357 359 359 358
353 354 356 357 362 363 363 363 361 360 360 360 360 359 360 359 359 357 357 359 359 359 360 360 358 357 357 355 354 354 354 356 350 351 350 356 355 357 356 357 359 358 358
354 355 358 360 360 361 361 363 361 361 360 358 359 359 358 358 358 351 352 358 358 359 358 359 359 358 355 355 354 355 355 356 350 353 355 353 354 358 358 358 358 358 358
354 356 356 359 362 362 361 360 362 362 360 360 358 357 359 362 358 355 353 354 358 357 358 358 359 358 357 355 355 355 357 357 355 353 353 349 356 359 358 358 358 358 357
347 352 355 357 357 359 357 363 364 361 358 362 363 363 365 360 358 352 353 350 351 357 358 358 357 358 356 357 356 356 360 358 354 353 351 348 352 358 358 357 358 359 358
349 350 352 357 360 358 360 361 363 362 362 363 363 362 360 358 358 356 354 355 359 357 359 359 355 356 355 356 355 353 354 353 354 354 351 349 352 354 356 356 357 358 357
350 352 353 355 358 359 360 361 363 362 360 359 359 360 359 362 356 351 354 353 357 357 357 358 360 359 356 353 350 353 349 350 349 351 353 353 354 355 354 357 357 357 358
349 352 354 356 357 357 358 358 358 358 357 356 357 358 363 361 360 353 356 351 352 354 352 353 353 352 349 350 350 351 350 348 348 349 351 353 355 356 355 355 358 355 358
350 350 354 355 356 357 357 360 357 357 355 355 355 359 361 360 361 356 353 348 351 352 353 349 346 348 345 345 346 347 348 349 349 350 349 351 354 356 357 357 359 355 355
348 350 352 354 356 357 358 359 357 357 354 355 355 359 359 360 360 357 353 348 347 348 348 348 347 346 345 349 349 350 349 348 349 349 348 347 351 353 353 357 359 361 358
347 348 352 351 353 355 357 358 356 356 356 358 359 359 358 359 355 353 352 352 350 351 351 348 350 347 347 342 346 347 349 347 349 347 351 352 349 350 353 353 357 359 359
350 350 349 352 351 353 356 356 356 358 357 357 359 358 357 357 358 358 352 355 359 351 354 352 353 352 351 351 343 346 346 349 350 349 349 348 346 347 348 354 354 355 356
350 351 350 350 352 355 355 354 355 355 356 357 358 359 356 355 357 358 356 355 355 354 354 355 353 353 353 353 351 351 353 353 354 353 351 350 351 347 345 348 351 351 355
350 350 350 350 353 353 352 351 353 350 355 354 357 357 354 357 359 359 357 354 354 355 357 356 358 355 353 355 350 346 349 352 353 352 354 352 352 354 352 346 353 352 351
349 350 351 352 353 353 354 352 355 354 355 353 354 354 354 354 355 357 356 355 357 356 359 358 357 353 354 355 347 346 338 344 348 352 355 354 352 354 355 354 355 356 357
349 351 351 353 354 355 356 354 354 357 355 350 352 353 356 356 355 360 359 359 358 359 356 358 357 354 349 354 353 346 338 335 339 349 348 350 350 349 350 351 350 352 355
347 351 353 354 354 355 357 355 355 353 355 349 352 357 353 357 361 361 355 354 354 353 353 353 354 354 349 345 348 351 349 346 336 334 347 345 350 346 348 350 350 350 353
346 347 351 354 355 355 357 358 353 354 351 351 351 351 348 348 350 353 352 350 348 346 346 346 348 350 352 349 345 345 346 346 347 339 333 337 340 344 349 350 351 352 352
345 346 348 352 354 355 356 356 355 355 353 349 350 349 346 344 345 347 346 344 344 342 343 344 347 344 348 347 344 341 339 336 335 336 334 333 336 339 346 345 342 343 346
Wind_Speed
5 7 9 13 14 15 15 15 15 16 15 14 13 12 12 12 12 11 10 8 6 5 5 4 2 3 2 1 2 7 10 11 11 12 11 10 11 11 13 13 10 12 12
9 8 9 12 14 14 15 14 14 14 15 14 12 12 13 12 11 10 9 7 6 4 3 3 2 2 2 2 3 7 8 11 11 11 10 9 8 9 11 11 7 12 11
10 10 11 12 13 13 14 13 13 14 13 12 11 11 10 10 10 9 9 8 6 4 2 5 4 4 4 4 4 6 8 8 9 8 11 1 6 8 11 11 11 11 11
11 10 11 11 12 13 13 12 12 12 11 11 10 10 9 9 9 7 8 8 6 5 5 6 6 6 6 7 6 6 7 6 6 7 4 6 5 6 9 10 9 9 11
11 10 11 11 12 11 11 13 13 11 9 11 11 9 8 7 6 5 6 6 5 6 8 7 7 6 6 7 7 6 6 7 7 4 5 3 3 7 7 9 9 8 6
13 11 13 13 12 11 12 11 10 10 9 10 9 9 8 6 6 6 7 8 7 6 7 8 7 7 6 7 5 5 5 4 2 3 4 6 3 6 7 8 6 8 8
12 11 12 11 12 11 10 11 10 9 7 8 10 8 8 8 6 5 7 8 8 7 7 8 7 6 6 6 5 5 5 2 3 2 3 3 5 4 7 7 7 7 7
11 10 11 11 11 10 10 11 10 9 7 7 7 9 10 8 6 5 5 6 8 8 8 7 8 6 6 5 4 3 1 3 1 4 1 1 4 3 6 6 7 8 7
10 10 8 10 10 11 10 9 9 9 8 7 6 5 6 7 7 5 2 5 6 6 8 8 7 6 5 4 3 1 1 4 2 3 3 2 3 3 4 5 7 7 7
9 10 9 7 9 8 9 9 9 7 6 5 5 6 4 5 8 5 1 3 4 7 6 8 7 7 5 3 3 3 2 5 3 4 1 2 3 5 6 6 7 7 8
8 9 9 10 8 7 7 8 8 8 6 5 4 4 4 2 4 5 3 4 4 5 7 7 7 6 5 3 1 1 2 1 1 2 2 3 6 7 7 9 8 8 8
12 11 9 8 8 8 6 7 6 4 4 2 2 1 2 4 3 1 1 2 3 5 6 7 5 5 4 2 3 2 1 1 2 1 3 3 5 8 8 8 9 8 7
13 10 11 9 8 7 5 5 3 3 2 2 4 3 3 3 3 2 1 2 1 3 3 3 1 2 2 3 3 2 3 4 3 3 4 5 6 10 9 8 8 9 8
13 12 11 10 8 7 5 4 3 2 3 3 4 4 4 3 3 1 2 2 2 2 3 3 2 2 3 2 3 4 2 5 4 4 5 9 9 9 11 9 8 9 9
13 12 12 11 10 8 8 5 4 4 4 4 4 4 3 4 3 4 3 2 3 3 3 2 1 3 3 5 4 3 7 6 8 5 5 7 12 11 11 11 11 10 11
14 14 13 13 11 9 7 7 5 4 4 4 5 4 5 5 3 4 2 2 2 3 2 2 1 2 3 3 3 5 5 7 8 8 7 6 9 11 13 14 13 14 12
13 13 13 13 12 12 11 8 7 5 4 4 4 6 6 6 5 4 5 3 3 3 1 2 1 2 4 6 7 8 5 7 6 5 4 4 6 9 12 14 15 15 15
11 12 12 10 11 11 9 6 5 6 4 3 3 3 5 5 3 4 4 3 4 4 4 2 4 5 5 4 6 6 6 5 7 8 9 7 5 6 6 11 13 14 18
13 11 12 11 11 10 9 6 6 6 5 3 2 3 4 4 3 1 2 3 3 3 5 4 4 5 5 4 4 5 6 8 10 9 10 7 8 6 7 9 11 12 16
12 12 12 10 11 9 5 4 3 4 4 4 3 3 3 2 4 3 3 3 3 3 4 4 4 4 4 4 4 5 6 6 5 5 8 9 10 7 6 11 10 10 15
13 13 12 11 11 9 6 6 3 3 4 2 4 5 5 4 4 4 3 3 3 3 2 3 2 3 3 2 4 3 2 3 3 4 4 4 7 8 7 7 8 8 7
15 14 13 12 12 10 7 3 3 4 4 2 3 5 6 4 3 3 3 2 3 3 5 4 4 2 2 2 3 3 3 2 2 1 1 2 4 4 4 8 8 8 8
15 15 14 14 13 11 10 7 3 4 2 1 2 3 5 5 5 6 4 3 3 2 3 1 1 3 3 1 2 4 3 2 6 1 3 3 4 3 3 4 8 8 8
15 12 13 13 12 11 13 10 9 5 4 2 3 4 4 5 5 3 4 2 4 3 2 3 3 3 2 2 2 1 5 4 3 4 1 2 1 5 6 5 5 4 5
13 13 13 13 12 12 12 11 9 6 4 4 4 7 5 5 5 8 6 6 5 3 3 3 3 3 1 2 3 2 3 4 4 2 5 4 5 3 3 4 4 5 5
13 14 13 14 14 12 12 12 12 10 7 7 7 6 5 4 4 5 5 5 5 4 3 3 4 4 2 2 3 3 3 4 4 4 4 6 8 2 4 4 6 6 6
Wind_Direction
208 163 142 117 111 109 104 98 97 101 113 136 142 137 132 140 147 144 142 136 145 140 130 127 119 123 150 109 57 79 95 107 122 129 129 119 116 119 114 107 125 108 110
135 158 141 117 113 113 109 107 104 101 106 118 130 129 129 140 145 146 147 148 150 161 165 157 120 138 145 132 82 86 105 119 120 121 125 126 123 117 113 110 113 107 114
141 147 132 118 115 117 116 117 113 111 114 123 124 121 134 139 146 153 155 152 152 168 189 181 151 124 123 125 103 98 96 101 113 124 92 74 110 126 126 119 117 120 115
144 142 137 122 122 122 120 124 120 122 125 119 120 128 137 143 147 160 154 151 157 149 132 132 129 125 117 117 115 104 100 80 108 89 109 137 148 128 125 119 118 121 118
146 147 135 130 132 130 134 121 127 129 129 126 122 129 141 141 138 155 154 150 149 147 140 132 136 124 118 112 106 110 93 80 86 106 108 80 200 118 116 122 132 132 131
151 154 143 148 140 137 131 125 121 119 126 122 134 136 143 142 145 141 135 141 143 150 144 124 122 129 127 111 114 126 110 68 96 104 92 102 95 138 130 127 138 119 132
150 154 151 148 143 141 135 132 125 123 133 148 136 139 148 143 142 134 142 147 145 143 142 127 126 125 124 123 126 134 135 53 344 138 103 131 127 152 138 157 144 136 135
154 153 151 149 150 147 143 138 136 137 145 144 140 154 144 145 139 136 151 145 150 142 140 144 133 133 121 121 128 130 216 268 294 209 185 155 81 193 165 172 153 148 151
158 155 161 164 161 159 157 150 151 151 154 151 150 143 137 158 132 107 163 152 160 162 153 142 130 131 130 123 110 103 52 120 139 154 184 208 137 221 182 172 166 158 158
163 164 168 170 162 170 162 165 166 162 157 156 164 151 133 158 125 173 341 180 178 169 170 149 146 150 145 120 79 46 90 140 166 170 186 157 217 236 189 193 183 175 177
179 178 175 170 171 167 172 168 176 174 172 179 189 170 170 142 138 179 203 240 199 191 181 181 169 169 158 159 132 340 60 28 123 197 190 115 229 234 200 188 198 189 185
185 187 183 188 178 179 184 181 182 188 190 185 189 166 145 156 168 141 251 219 215 213 199 195 200 205 205 265 211 163 238 271 250 266 237 203 238 255 233 200 195 192 195
187 189 192 189 192 197 190 188 189 183 203 206 218 206 196 167 174 185 205 177 209 234 210 213 234 221 182 194 238 292 262 247 268 261 284 276 270 250 257 240 218 197 206
193 193 187 196 193 200 201 203 212 193 202 222 231 233 217 184 192 165 215 188 208 198 236 225 207 241 255 255 241 210 262 281 262 259 264 258 261 260 253 256 234 220 216
200 198 196 192 197 198 200 198 205 213 217 246 249 247 245 225 195 197 195 228 230 203 224 231 255 243 281 276 243 286 270 248 278 265 262 256 247 247 244 235 234 231 225
199 197 193 193 193 197 208 214 208 216 226 236 244 250 249 263 238 204 174 201 209 250 253 132 289 288 281 277 285 231 256 266 268 274 274 268 237 244 241 238 246 229 230
207 201 199 196 189 195 201 204 205 213 228 265 260 248 254 253 252 210 192 177 220 199 217 178 193 278 286 260 248 245 237 234 242 263 262 253 264 245 255 247 236 237 233
217 208 203 198 194 196 205 208 216 213 225 259 254 246 239 254 254 203 192 203 218 201 209 200 221 233 248 251 257 259 270 261 236 240 253 248 223 259 244 243 248 246 237
217 214 208 206 206 195 193 202 222 227 230 226 221 224 224 237 175 164 190 199 202 182 202 205 220 239 255 259 247 258 241 245 250 257 232 223 230 233 261 257 243 252 249
213 212 211 202 200 186 169 181 193 199 217 212 201 215 200 171 156 160 185 171 196 199 196 192 205 211 257 283 277 269 251 250 258 247 251 241 237 224 231 251 263 248 229
208 205 204 195 181 172 157 163 172 191 188 202 197 200 201 177 183 181 190 211 240 251 250 212 209 243 254 264 289 320 308 262 235 234 246 268 266 251 225 239 253 258 251
206 202 200 200 184 186 169 134 144 174 194 187 174 194 200 194 213 229 223 218 239 253 236 233 247 270 242 208 318 310 323 163 188 25 222 219 254 260 235 244 251 248 254
207 197 194 194 188 183 172 147 104 140 105 228 149 183 197 179 193 222 213 204 236 267 286 282 256 242 292 169 307 310 296 309 326 137 54 68 347 305 304 277 267 267 258
209 194 190 190 184 185 174 165 171 180 174 217 129 144 98 117 127 140 87 103 97 95 74 37 3 14 358 321 310 242 266 274 295 300 201 331 347 323 340 319 319 263 259
196 187 185 180 183 184 181 177 182 184 184 149 125 109 98 91 105 95 101 103 94 88 68 42 15 1 325 277 247 299 292 274 272 273 296 313 292 331 12 357 2 350 295
184 178 176 178 183 183 185 182 188 185 181 165 152 146 145 134 112 101 110 108 100 90 73 67 70 61 29 35 37 31 15 340 338 328 303 317 311 317 64 70 46 29 19